Regional Weather Roundup
Issued by NWS

Home | Current Version | Previous Version | Text Only | Print | Product List | Glossary Off
Versions: 1 2 3 4 5 6 7 8 9 10 11 12 13 14 15 16 17 18 19 20 21 22 23 24 25 26 27 28 29 30 31 32 33 34 35 36 37 38 39 40 41 42 43 44 45 46 47 48 49 50

000
ASUS45 KABQ 170901
RWRNM
WEATHER ROUNDUP FOR NEW MEXICO
NATIONAL WEATHER SERVICE ALBUQUERQUE NM
300 AM MDT WED SEP 17 2014

NOTE: "FAIR" MEANS FEW OR NO CLOUDS BELOW 12,000 FEET AGL WITH NO
       SIGNIFICANT WEATHER OR OBSTRUCTIONS TO VISION.

      THIS PRODUCT IS RELEASED AS TWO VERSIONS.  ONE VERSION NEAR
      THE TOP OF THE HOUR CONTAINING PRELIMINARY DATA FROM ALBUQUERQUE
      AND OTHER STATIONS.  A FINAL VERSION WITH ADDITIONAL DATA IS
      ISSUED ABOUT 10 MINUTES AFTER THE HOUR.

NMZ501-503-504-510>518-171000-
NORTHWEST PLATEAU/NORTHCENTRAL MOUNTAINS

CITY           SKY/WX    TMP DP  RH WIND       PRES   REMARKS
FARMINGTON     CLEAR     66  52  60 E7        30.15F
LOS ALAMOS     CLOUDY    56  54  93 CALM      30.29S
SANTA FE       CLOUDY    58  51  78 CALM      30.23F
ANGEL FIRE     FAIR      39  36  91 CALM      30.37F

$$
NMZ402-403-502-505>509-171000-
WESTCENTRAL MOUNTAINS/SOUTHWEST MOUNTAINS

CITY           SKY/WX    TMP DP  RH WIND       PRES   REMARKS
GALLUP         CLOUDY    60  52  74 CALM      30.22F
GRANTS         CLOUDY    55  52  88 E5        30.26S
SILVER CITY    LGT RAIN  63  63 100 NE6       30.18F

$$
NMZ407-409-411-412-171000-
SOUTHERN DESERTS

CITY           SKY/WX    TMP DP  RH WIND       PRES   REMARKS
LORDSBURG      CLOUDY    64  63  94 E8        30.07S
DEMING         LGT RAIN  65  64  97 NE9       30.10F
LAS CRUCES     CLOUDY    65  64  95 N6        30.12S
HOLLOMAN AFB   CLOUDY    65  65 100 CALM      30.09F
ALAMOGORDO     CLOUDY    64  64 100 CALM      30.11F
T OR C         HVY RAIN  63  61  93 NW3       30.14F FOG

$$
NMZ519>523-171000-
CENTRAL VALLEYS/CENTRAL HIGHLANDS

CITY           SKY/WX    TMP DP  RH WIND       PRES   REMARKS
ALBUQUERQUE    CLOUDY    62  54  74 S3        30.20F
DOUBLE EAGLE   CLOUDY    58  55  90 CALM      30.22F
CLINES CORNERS CLOUDY    55  52  89 W8        30.25F
BELEN          DRIZZLE   59  58  96 NE3       30.18F
SOCORRO        CLOUDY    63  61  94 NW6       30.16F

$$
NMZ524>526-539-540-171000-
SOUTHCENTRAL MOUNTAINS

CITY           SKY/WX    TMP DP  RH WIND       PRES   REMARKS
RUIDOSO        NOT AVBL

$$
NMZ527>531-171000-
NORTHEAST HIGHLANDS/NORTHEAST PLAINS

CITY           SKY/WX    TMP DP  RH WIND       PRES   REMARKS
LAS VEGAS      MOCLDY    53  48  83 CALM      30.24F
RATON          CLOUDY    55  51  86 NE7       30.20F
CLAYTON        CLOUDY    60  56  86 SW7       30.10F

$$
NMZ532>537-171000-
EASTCENTRAL PLAINS

CITY           SKY/WX    TMP DP  RH WIND       PRES   REMARKS
TUCUMCARI      MOCLDY    63  58  83 W3        30.10F
CANNON AFB     MOCLDY    64  59  82 W6        30.13F
CLOVIS AIRPORT   N/A     64  59  82 W3        30.15F

$$
NMZ028-029-538-171000-
SOUTHEAST PLAINS

CITY           SKY/WX    TMP DP  RH WIND       PRES   REMARKS
ROSWELL        LGT RAIN  67  65  93 CALM      30.10F
CARLSBAD       CLOUDY    68 N/A N/A W5        30.08F
HOBBS          CLOUDY    64  64 100 E5        30.12F


$$


USA.gov is the U.S. government's official web portal to all federal, state and local government web resources and services.